{"data":{"norad_id":64376,"intl_designator":"2025-127G","name":"STARLINK-11745 [DTC]","alt_names":[],"object_type":"PAYLOAD","status":"ACTIVE","operator":null,"country":"US","launch_date":"2025-06-13","launch_site_code":"AFETR","launch_vehicle":null,"mission":null,"orbit_class":"UNKNOWN","rcs_meters":null,"size_class":null,"mass_kg":null,"dimensions":null,"purposes":["comms"],"wikipedia_slug":null,"has_3d_model":false,"image_url":null,"decayed_at":null,"tle_current":{"epoch":"2026-05-24T22:23:37.379328Z","epoch_age_seconds":74664,"freshness":"FRESH","line1":"1 64376U 25127G   26144.93307152  .00192554  00000+0  14672-2 0  9997","line2":"2 64376  43.0022 344.9502 0001776 266.3602  93.7062 15.70879468 55497","mean_motion":15.70879468,"eccentricity":0.0001776,"inclination_deg":43.0022,"raan_deg":344.9502,"arg_perigee_deg":266.3602,"mean_anomaly_deg":93.7062,"bstar":0.0014672,"rev_number":5549,"period_min":91.668395273723,"perigee_km":355.18620637984,"apogee_km":357.57830761993,"semimajor_km":6734.5192569999,"source":"CELESTRAK","updated_at":"2026-05-25T13:38:20.410523Z"}}}